Weather reports worldwide

Advertisment
Bujaraloz, Spain (8165): temperature & dewpoint: 15.02.2020 04:00:00 - 21.02.2020 04:00:00 (CET)Bujaraloz, Spain (8165): wind speed & gusts: 15.02.2020 04:00:00 - 21.02.2020 04:00:00 (CET)Bujaraloz, Spain (8165): wind direction: 15.02.2020 04:00:00 - 21.02.2020 04:00:00 (CET)Bujaraloz, Spain (8165): reduced air pressure: 15.02.2020 04:00:00 - 21.02.2020 04:00:00 (CET)Bujaraloz, Spain (8165): visibility: 15.02.2020 04:00:00 - 21.02.2020 04:00:00 (CET)Bujaraloz, Spain (8165): sunshine duration: 15.02.2020 04:00:00 - 21.02.2020 04:00:00 (CET)Bujaraloz, Spain (8165): precipitation: 15.02.2020 04:00:00 - 21.02.2020 04:00:00 (CET)
Date & Time tt [°C] td [°C] ff [km/h] ff [kn] fx [km/h] fx [kn] dd ppp [hPa] vv [km] sd [min] rr [mm]
21.02.2020 04:00:00 - - - - - - - - - - -
21.02.2020 03:00:00 6,6 2,1 16 9 20 11 WSW 1028,1 20 0 0,0
21.02.2020 02:00:00 6,4 2,5 15 8 21 11 W 1027,6 20 0 0,0
21.02.2020 01:00:00 5,3 3,0 19 10 22 12 W 1027,1 20 0 -
21.02.2020 00:00:00 7,4 2,3 12 6 13 7 W 1026,1 20 0 0,0
20.02.2020 23:00:00 9,4 2,9 5 3 9 5 N 1025,5 20 0 0,0
20.02.2020 22:00:00 9,7 2,3 8 4 10 5 SSE 1024,9 20 0 0,0
20.02.2020 21:00:00 12,0 2,5 2 1 11 6 W 1024,5 20 0 0,0
20.02.2020 20:00:00 13,4 2,9 10 5 16 9 WNW 1024,0 20 0 0,0
20.02.2020 19:00:00 14,6 2,5 16 9 18 10 W 1023,1 20 35 -
20.02.2020 18:00:00 16,0 4,1 11 6 15 8 WSW 1022,5 20 60 0,0
20.02.2020 17:00:00 16,3 4,6 8 5 13 7 SW 1022,2 20 60 0,0
20.02.2020 16:00:00 16,7 4,3 5 3 9 5 W 1022,2 20 60 0,0
20.02.2020 15:00:00 14,3 1,9 3 2 8 5 NNW 1022,6 20 60 0,0
20.02.2020 14:00:00 12,4 4,3 4 2 9 5 NE 1023,3 20 60 0,0
20.02.2020 13:00:00 9,9 2,7 5 3 10 5 NNE 1024,5 20 60 -
20.02.2020 12:00:00 7,3 3,0 2 1 11 6 NNW 1025,4 20 60 0,0
20.02.2020 11:00:00 3,6 3,6 3 2 8 5 NNE - - 43 0,0
20.02.2020 10:00:00 2,0 2,1 3 2 7 4 ENE 1026,3 0,2 20 0,0
20.02.2020 09:00:00 1,6 1,7 5 3 9 5 ENE 1025,8 0,9 0 0,0
20.02.2020 08:00:00 1,4 1,5 4 2 7 4 N 1025,4 0,1 0 0,0
20.02.2020 07:00:00 2,4 2,5 3 2 6 3 ENE 1025,2 0,3 0 -
20.02.2020 06:00:00 2,5 2,5 4 2 7 4 NNE 1025,4 2,9 0 0,0
20.02.2020 05:00:00 2,4 2,5 5 3 7 4 N 1025,3 0,2 0 0,0
20.02.2020 04:00:00 3,9 3,0 5 3 10 5 E 1025,5 20 0 0,0
20.02.2020 03:00:00 4,0 2,7 8 5 10 5 E 1026,0 20 0 0,0
20.02.2020 02:00:00 4,5 4,1 5 3 7 4 NE 1026,4 19 0 0,0
20.02.2020 01:00:00 5,7 4,5 6 3 11 6 ENE 1026,6 20 0 -
20.02.2020 00:00:00 6,5 4,1 10 5 11 6 E 1026,9 20 0 0,0
19.02.2020 23:00:00 8,2 3,4 3 2 11 6 N 1027,1 20 0 0,0
19.02.2020 22:00:00 9,0 3,4 7 4 10 6 NE 1027,1 20 0 0,0
19.02.2020 21:00:00 9,1 3,8 3 1 14 7 S 1027,4 20 0 0,0
19.02.2020 20:00:00 12,4 2,5 12 7 13 7 SW 1027,1 20 0 0,0
19.02.2020 19:00:00 13,3 2,5 5 3 11 6 W 1027,1 20 31 -
19.02.2020 18:00:00 14,3 2,5 10 5 16 9 WNW 1026,9 20 60 0,0
19.02.2020 17:00:00 15,0 2,1 10 5 23 12 W 1027,2 20 60 0,0
19.02.2020 16:00:00 14,7 2,3 15 8 29 16 WNW 1027,9 20 60 0,0
19.02.2020 15:00:00 13,9 2,5 14 8 44 24 NW 1028,7 20 60 0,0
19.02.2020 14:00:00 12,7 1,9 20 11 39 21 WNW 1029,8 20 60 0,0
19.02.2020 13:00:00 12,0 2,5 21 12 34 18 NW 1031,0 20 60 -
19.02.2020 12:00:00 10,4 2,1 27 15 47 26 WNW 1032,1 20 60 0,0
19.02.2020 11:00:00 9,2 1,9 29 16 48 26 WNW 1032,6 20 60 0,0
19.02.2020 10:00:00 7,9 1,5 24 13 32 17 W 1032,2 20 49 0,0
19.02.2020 09:00:00 4,5 0,9 14 7 25 14 W 1031,8 20 40 0,0
19.02.2020 08:00:00 4,4 0,6 23 12 28 15 W 1031,2 20 0 0,0
19.02.2020 07:00:00 5,1 1,1 21 11 26 14 W 1030,9 20 0 -
19.02.2020 06:00:00 5,6 1,3 21 11 28 15 W 1030,9 20 0 0,0
19.02.2020 05:00:00 6,3 1,5 21 11 33 18 W 1030,5 20 0 0,0
19.02.2020 04:00:00 6,6 1,7 24 13 35 19 W 1031,2 20 0 0,0
19.02.2020 03:00:00 6,9 1,7 26 14 37 20 W 1031,4 20 0 0,0
19.02.2020 02:00:00 7,1 1,3 24 13 34 18 W 1031,4 20 0 0,0
19.02.2020 01:00:00 7,4 0,9 22 12 39 21 W 1031,3 20 0 -
19.02.2020 00:00:00 8,2 0,9 27 15 37 20 W 1031,4 20 0 0,0
18.02.2020 23:00:00 8,2 1,5 29 15 35 19 W 1031,3 20 0 0,0
18.02.2020 22:00:00 9,1 2,3 26 14 32 17 W 1030,8 20 0 0,0
18.02.2020 21:00:00 9,2 2,5 24 13 27 15 W 1030,4 20 0 0,0
18.02.2020 20:00:00 10,1 2,5 25 14 31 17 W 1029,9 20 0 0,0
18.02.2020 19:00:00 11,9 1,9 21 11 31 17 WNW 1029,3 20 25 -
18.02.2020 18:00:00 13,4 1,7 18 10 30 16 WNW 1028,6 20 60 0,0
18.02.2020 17:00:00 13,9 0,9 22 12 33 18 WNW 1028,4 20 60 0,0
18.02.2020 16:00:00 13,8 1,1 24 13 35 19 NW 1028,8 20 60 0,0
18.02.2020 15:00:00 13,2 1,5 26 14 44 24 NW 1029,4 20 60 0,0
18.02.2020 14:00:00 13,6 1,9 30 16 44 24 WNW 1030,0 20 60 0,0
18.02.2020 13:00:00 12,1 1,7 32 18 45 24 WNW 1031,0 20 60 -
18.02.2020 12:00:00 11,3 1,9 32 17 44 24 NW 1031,8 20 60 0,0
18.02.2020 11:00:00 10,4 2,3 29 15 42 23 WNW 1032,2 20 60 0,0
18.02.2020 10:00:00 9,4 2,5 24 13 35 19 W 1032,0 20 50 0,0
18.02.2020 09:00:00 7,9 2,1 26 14 38 21 W 1031,8 20 32 0,0
18.02.2020 08:00:00 7,1 2,5 24 13 38 21 W 1031,3 20 0 0,0
18.02.2020 07:00:00 7,6 2,7 29 15 37 20 W 1030,6 20 0 -
18.02.2020 06:00:00 7,7 3,0 26 14 36 20 W 1030,5 20 0 0,0
18.02.2020 05:00:00 7,6 2,9 24 13 31 17 W 1030,5 20 0 0,0
18.02.2020 04:00:00 8,3 2,7 20 11 41 22 WSW 1030,1 20 0 0,0
18.02.2020 03:00:00 9,2 2,3 27 14 48 26 W 1030,3 20 0 0,0
18.02.2020 02:00:00 9,5 3,4 31 17 51 28 W 1030,0 20 0 0,0
18.02.2020 01:00:00 10,1 3,2 40 22 53 29 W 1029,9 20 0 -
18.02.2020 00:00:00 10,8 3,6 36 19 54 29 W 1030,0 20 0 0,0
17.02.2020 23:00:00 11,3 3,8 36 20 50 27 W 1029,5 20 0 0,0
17.02.2020 22:00:00 11,7 4,1 35 19 52 28 WNW 1029,2 20 0 0,0
17.02.2020 21:00:00 12,4 4,3 35 19 62 33 WNW 1028,3 20 0 0,0
17.02.2020 20:00:00 13,0 5,0 45 24 69 38 WNW 1026,8 20 0 0,0
17.02.2020 19:00:00 13,4 8,0 35 19 55 30 W 1025,8 20 0 -
17.02.2020 18:00:00 15,1 9,7 40 22 61 33 WNW 1024,1 20 0 0,0
17.02.2020 17:00:00 17,0 9,7 38 21 55 30 WNW 1022,7 20 40 0,0
17.02.2020 16:00:00 19,5 9,9 42 23 53 29 NW 1021,9 20 50 0,0
17.02.2020 15:00:00 17,6 10,2 8 5 16 8 WNW 1021,9 20 43 0,0
17.02.2020 14:00:00 17,5 10,6 5 3 9 5 W 1022,2 20 60 0,0
17.02.2020 13:00:00 13,3 9,9 4 2 12 6 S 1023,5 11 56 -
17.02.2020 12:00:00 7,7 7,7 6 3 10 5 NE 1024,9 1,0 11 0,0
17.02.2020 11:00:00 6,9 6,8 3 2 10 5 NNE 1025,0 0,1 0 0,0
17.02.2020 10:00:00 6,7 6,7 4 2 10 5 SE 1024,7 - 0 0,0
17.02.2020 09:00:00 6,4 6,4 4 2 8 4 SSW 1024,5 - 0 0,0
17.02.2020 08:00:00 6,5 6,5 6 3 9 5 E 1023,9 - 0 0,2
17.02.2020 07:00:00 7,0 7,0 4 2 9 5 SE 1023,4 - 0 -
17.02.2020 06:00:00 7,2 7,1 3 2 8 5 ESE 1023,4 - 0 0,0
17.02.2020 05:00:00 7,3 7,3 6 3 9 5 E 1023,6 - 0 0,0
17.02.2020 04:00:00 7,3 7,3 9 5 11 6 ENE 1023,7 - 0 0,0
17.02.2020 03:00:00 7,5 7,6 7 4 11 6 ENE 1024,0 - 0 0,0
17.02.2020 02:00:00 8,2 8,3 4 2 10 5 E 1024,2 - 0 0,0
17.02.2020 01:00:00 9,3 9,3 4 2 11 6 ESE 1024,3 - 0 -
17.02.2020 00:00:00 9,7 9,7 9 5 14 8 ENE 1024,1 - 0 0,0
16.02.2020 23:00:00 10,1 10,0 9 5 14 8 ENE 1024,1 - 0 0,0
16.02.2020 22:00:00 10,9 10,6 10 6 15 8 ENE 1023,9 - 0 0,0
16.02.2020 21:00:00 12,5 11,1 10 5 16 8 ENE 1023,4 - 0 0,0
16.02.2020 20:00:00 13,8 11,1 10 5 14 7 E 1022,7 - 0 0,0
16.02.2020 19:00:00 15,1 10,9 12 6 16 9 NE 1022,0 - 25 -
16.02.2020 18:00:00 16,5 11,0 11 6 16 9 NE 1021,5 - 60 0,0
16.02.2020 17:00:00 17,6 11,2 9 5 14 7 E 1021,3 20 60 0,0
16.02.2020 16:00:00 16,8 10,4 8 4 13 7 ENE 1022,0 20 60 0,0
16.02.2020 15:00:00 15,4 10,8 9 5 16 9 NE 1022,5 15 60 0,0
16.02.2020 14:00:00 13,6 10,0 9 5 14 7 NE 1023,5 19 60 0,0
16.02.2020 13:00:00 11,8 8,8 9 5 16 9 NE 1024,9 9 60 -
16.02.2020 12:00:00 10,8 8,9 3 1 10 5 NE 1026,1 20 23 0,0
16.02.2020 11:00:00 9,3 9,3 2 1 7 4 N 1026,3 9 0 0,0
16.02.2020 10:00:00 8,6 8,7 5 3 11 6 S 1026,0 0,2 0 0,0
16.02.2020 09:00:00 7,7 7,7 8 4 14 8 S 1025,9 0,2 0 0,0
16.02.2020 08:00:00 8,2 8,3 11 6 15 8 SE 1025,2 0,2 0 0,0
16.02.2020 07:00:00 8,1 8,1 5 3 10 5 S 1025,4 0,2 0 -
16.02.2020 06:00:00 7,8 7,8 9 5 13 7 S 1024,9 0,1 0 0,0
16.02.2020 05:00:00 8,8 8,8 12 6 17 9 ENE 1024,8 0,9 0 0,0
16.02.2020 04:00:00 8,2 8,3 12 6 16 9 E 1024,4 0,1 0 0,0
16.02.2020 03:00:00 8,2 8,3 6 4 14 8 SE 1025,2 0,1 0 0,0
16.02.2020 02:00:00 8,0 8,0 6 3 11 6 SE 1025,9 0,2 0 0,0
16.02.2020 01:00:00 9,1 9,0 9 5 12 6 ENE 1025,6 2,3 0 -
16.02.2020 00:00:00 9,7 9,4 9 5 11 6 NNE 1025,2 7 0 0,0
15.02.2020 23:00:00 10,8 9,6 8 4 11 6 E 1025,0 14 0 0,0
15.02.2020 22:00:00 12,1 9,3 5 3 6 4 NNE 1024,8 20 0 0,0
15.02.2020 21:00:00 13,1 9,2 7 4 12 6 ENE 1024,4 20 0 0,0
15.02.2020 20:00:00 14,5 8,9 9 5 14 8 ESE 1023,8 20 0 0,0
15.02.2020 19:00:00 15,9 8,7 9 5 13 7 NE 1023,3 20 0 -
15.02.2020 18:00:00 16,3 9,0 13 7 14 8 N 1022,5 20 39 0,0
15.02.2020 17:00:00 17,1 9,0 4 2 14 7 NNE 1021,8 20 60 0,0
15.02.2020 16:00:00 17,5 8,9 10 5 16 8 SSE 1022,2 20 60 0,0
15.02.2020 15:00:00 15,4 8,7 4 2 10 6 E 1023,7 20 60 0,0
15.02.2020 14:00:00 12,9 8,9 9 5 13 7 NE 1024,2 10 60 0,0
15.02.2020 13:00:00 9,8 8,3 6 3 10 5 ENE 1025,2 15 55 -
15.02.2020 12:00:00 7,0 7,0 4 2 11 6 E 1026,0 1,1 2 0,0
15.02.2020 11:00:00 6,0 5,9 6 3 11 6 E 1026,0 0,1 0 0,0
15.02.2020 10:00:00 5,0 5,0 9 5 13 7 NNE 1026,0 0,9 0 0,0
15.02.2020 09:00:00 4,3 4,3 4 2 9 5 SE 1025,5 0,1 16 0,0
15.02.2020 08:00:00 5,0 5,0 3 2 9 5 ENE 1024,9 0,1 0 0,0
15.02.2020 07:00:00 5,8 5,8 4 2 7 4 ESE 1024,2 9 0 -
15.02.2020 06:00:00 4,8 4,8 5 3 12 6 N 1024,3 0,1 0 0,0
15.02.2020 05:00:00 6,2 6,2 9 5 11 6 E 1023,5 5 0 0,0
15.02.2020 04:00:00 7,1 7,0 9 5 10 5 ENE 1024,0 10 0 0,0

tt = temperature
td = dewpoint
ff = wind speed
fx = gusts
dd = wind direction
ppp = reduced air pressure
vv = visibility
sd = sunshine duration
rr = precipitation

Next stations